Location: Peebles
(55.6412°N, 3.1714°W)
Time: 17:02:25
(UTC+01:00)

Cosmos 1934 Rocket - Pass Details

Date: 04 February 2022
Orbit: 938 x 999 km, 83.0° (Epoch: 25 May)

Event Time Altitude Azimuth Distance (km) Brightness Sun altitude
Rises 04:56:17 0° 138° (SE) 3,676 7.5 -26.0°
Reaches altitude 10° 04:59:28 10° 122° (ESE) 2,722 6.9 -25.6°
Maximum altitude 05:03:47 20° 78° (ENE) 2,071 6.5 -25.0°
Drops below altitude 10° 05:08:05 10° 33° (NNE) 2,705 6.8 -24.4°
Sets 05:11:13 0° 18° (NNE) 3,646 7.3 -23.9°
